Tracking 23726 objects as of 22-Sep-2021
HD Live streaming from Space Station
objects crossing your sky now

BNU-1

Track BNU-1 now!
10-day predictions


NORAD ID: 44529
Int'l Code: 2019-059B
Perigee: 738.7 km
Apogee: 758.3 km
Inclination: 98.5 °
Period: 99.6 minutes
Semi major axis: 7119 km
RCS: Unknown
Launch date: September 12, 2019
Source: People's Republic of China (PRC)
Launch site: Taiyaun Space Center, China (TSC)
aabbcc
Your satellite tracking list
Your tracking list is empty




NASA's NSSDC Master Catalog

Two Line Element Set (TLE):
1 44529U 19059B   21265.57737478  .00000093  00000-0  39391-4 0  9993
2 44529  98.5298 354.6377 0013817 193.1467 166.9371 14.45201790107085
Source of the keplerian elements: AFSPC